Change the Weather History Date:

Thursday, February 14, 2013

  Actual Average Record
Temperature  
Mean Temperature 78 °F -  
Max Temperature 82 °F 81 °F 84 °F (1998)
Min Temperature 75 °F 72 °F 71 °F (2001)
Cooling Degree Days 14    
Growing Degree Days 28 (Base 50)    
Moisture  
Dew Point 69 °F    
Average Humidity 72    
Maximum Humidity 83    
Minimum Humidity 57    
Precipitation  
Precipitation 0.12 in 0.06 in - ()
Sea Level Pressure  
Sea Level Pressure 30.05 in    
Wind  
Wind Speed 11 mph ()    
Max Wind Speed 15 mph    
Max Gust Speed -    
Visibility 6.9 miles    
Events Rain    
Averages and records for this station are not official NWS values.
T = Trace of Precipitation, MM = Missing Value Source: Averaged Metar Reports

Daily Weather History Graph

Daily Weather History Graph

Search for Another Location

Airport or City:

Trip Planner

Search our weather history database for the weather conditions in past years. The results will help you decide how hot, cold, wet, or windy it might be!

Date:

Astronomy

Feb. 14, 2013 Rise Set
Actual Time 6:40 AM AST 6:13 PM AST
Civil Twilight 6:17 AM AST 6:35 PM AST
Nautical Twilight 5:52 AM AST 7:01 PM AST
Astronomical Twilight 5:26 AM AST 7:26 PM AST
Moon 9:27 AM AST (2/14) 10:19 PM AST (2/14)
Length of Visible Light 12h 17m
Length of Day
11h 33m
Waxing Crescent, 21% of the Moon is Illuminated
Feb 14
Waxing Crescent
Feb 17
First Quarter
Feb 25
Full
Mar 4
Last Quarter
Mar 11
New

Hourly Weather History & Observations

Time (AST) Temp. Heat Index Dew Point Humidity Pressure Visibility Wind Dir Wind Speed Gust Speed Precip Events Conditions
12:00 AM 75.2 °F - 68.0 °F 78% 30.06 in 6.2 mi East 15.0 mph - N/A Rain Light Rain Showers
1:00 AM 75.2 °F - 68.0 °F 78% 30.04 in 6.2 mi East 15.0 mph - N/A   Scattered Clouds
2:00 AM 76 °F - 68 °F 69% 30.05 in 16 mi East 13.8 mph - -   Partly Cloudy
2:00 AM 75.2 °F - 68.0 °F 78% 30.04 in 6.2 mi East 13.8 mph - N/A   Scattered Clouds
3:00 AM 77.0 °F - 68.0 °F 74% 30.01 in 6.2 mi East 15.0 mph - N/A   Mostly Cloudy
4:00 AM 77.0 °F - 68.0 °F 74% 30.01 in 6.2 mi East 12.7 mph - N/A   Scattered Clouds
5:00 AM 76 °F - 69 °F 73% 30.02 in 19 mi ESE 10.4 mph - -   Mostly Cloudy
5:00 AM 75.2 °F - 69.8 °F 83% 30.01 in 6.2 mi East 10.4 mph - N/A   Mostly Cloudy
6:00 AM 77.0 °F - 68.0 °F 74% 30.04 in 6.2 mi East 10.4 mph - N/A Rain Light Rain Showers
7:00 AM 77.0 °F - 68.0 °F 74% 30.04 in 6.2 mi East 10.4 mph - N/A   Partly Cloudy
8:00 AM 78 °F - 69 °F 67% 30.07 in 22 mi ESE 11.5 mph - -   Partly Cloudy
8:00 AM 78.8 °F - 69.8 °F 74% 30.06 in 6.2 mi East 12.7 mph - N/A   Scattered Clouds
9:00 AM 78.8 °F - 69.8 °F 74% 30.06 in 6.2 mi East 12.7 mph - N/A   Scattered Clouds
10:00 AM 80.6 °F 83.9 °F 69.8 °F 70% 30.09 in 6.2 mi East 12.7 mph - N/A   Mostly Cloudy
11:00 AM 81 °F - 68 °F 57% 30.11 in 22 mi ESE 10.4 mph - -   Mostly Cloudy
11:00 AM 80.6 °F 83.2 °F 68.0 °F 65% 30.09 in 6.2 mi ESE 10.4 mph - N/A   Mostly Cloudy
12:00 PM 80.6 °F 83.2 °F 68.0 °F 65% 30.09 in 6.2 mi SE 6.9 mph - N/A   Scattered Clouds
12:40 PM 77.0 °F - 69.8 °F 78% 30.06 in 1.2 mi SSE 8.1 mph - N/A   Scattered Clouds
1:00 PM 77.0 °F - 71.6 °F 83% 30.06 in 6.2 mi ESE 6.9 mph - N/A   Scattered Clouds
2:00 PM 81 °F - 70 °F 61% 30.06 in 22 mi ESE 8.1 mph - -   Partly Cloudy
2:00 PM 80.6 °F 83.9 °F 69.8 °F 70% 30.04 in 6.2 mi ESE 8.1 mph - N/A   Mostly Cloudy
3:00 PM 80.6 °F 83.9 °F 69.8 °F 70% 30.04 in 6.2 mi East 8.1 mph - N/A   Scattered Clouds
4:00 PM 80.6 °F 83.2 °F 68.0 °F 65% 30.04 in 6.2 mi East 9.2 mph - N/A   Scattered Clouds
5:00 PM 80 °F - 69 °F 63% 30.05 in 22 mi ESE 9.2 mph - -   Partly Cloudy
5:00 PM 80.6 °F 83.9 °F 69.8 °F 70% 30.04 in 6.2 mi ESE 9.2 mph - N/A   Scattered Clouds
6:00 PM 78.8 °F - 69.8 °F 74% 30.04 in 6.2 mi East 10.4 mph - N/A   Scattered Clouds
7:00 PM 77.0 °F - 69.8 °F 78% 30.04 in 6.2 mi ESE 12.7 mph - N/A   Scattered Clouds
8:00 PM 78 °F - 69 °F 67% 30.06 in 22 mi ESE 10.4 mph - -   Partly Cloudy
8:00 PM 77.0 °F - 69.8 °F 78% 30.04 in 6.2 mi ESE 10.4 mph - N/A   Scattered Clouds
9:00 PM 77.0 °F - 69.8 °F 78% 30.06 in 6.2 mi East 11.5 mph - N/A   Scattered Clouds
10:00 PM 77.0 °F - 69.8 °F 78% 30.06 in 6.2 mi East 12.7 mph - N/A   Scattered Clouds
11:00 PM 77 °F - 69 °F 69% 30.09 in 22 mi East 10.4 mph - -   Scattered Clouds
11:00 PM 77.0 °F - 68.0 °F 74% 30.06 in 6.2 mi East 10.4 mph - N/A   Partly Cloudy